Flag for France Weather past 2 weeks in Tours, France

48 °F

Passing clouds.

Feels Like: 46 °F
Forecast: 37 / 54 °F
Wind: 5 mph from North

Location: Tours Airport

Current Time: Oct 13, 2015 at 8:54:19 PM

Latest Report: Oct 13, 2015 at 8:30 PM

Visibility: N/A

Pressure: 30.12 "Hg

Humidity: 76%

Dew point: 41 °F

Location of ToursLocation

Historic Weather in Tours — Graph


Tours temperature yesterday

Maximum temperature yesterday: 61 °F (at 2:30 PM)
Minimum temperature yesterday: 48 °F (at 11:30 PM)
Average temperature yesterday: 54 °F

Past Weeks' High & Low Weather Summary

High70 °F (Oct 6, 2:30 PM)100% (Oct 3, 8:30 AM)30.36 "Hg (Oct 3, 8:30 AM)
Low45 °F (Oct 13, 8:00 AM)42% (Oct 1, 3:00 PM)29.56 "Hg (Oct 6, 5:00 AM)
Average56 °F78%30.02 "Hg
* Reported Sep 28 7:00 PM — Oct 13 7:30 PM, Tours, Weather by CustomWeather, © 2015

Note: Actual official high and low records may vary slightly from our data, if they occured in-between our weather recording intervals... More about our weather records


Tours weather history for previous 24 hours

Time TempWeatherWind HumidityBarometerVisibility
7:30 PM
Tue, Oct 13
52 °FSunny.6 mph67%30.09 "Hg10 mi
7:00 PM52 °FSunny.7 mph67%30.09 "Hg10 mi
6:30 PM54 °FBroken clouds.9 mph63%30.09 "HgN/A
6:00 PM54 °FMostly cloudy.8 mph67%30.09 "HgN/A
5:30 PM55 °FMore clouds than sun.10 mph59%30.09 "HgN/A
5:00 PM55 °FBroken clouds.10 mph59%30.09 "HgN/A
4:30 PM55 °FPassing clouds.10 mph59%30.09 "HgN/A
4:00 PM55 °FOvercast.7 mph55%30.09 "HgN/A
3:30 PM55 °FPartly sunny.9 mph59%30.09 "HgN/A
3:00 PM57 °FBroken clouds.9 mph55%30.09 "HgN/A
2:30 PM55 °FPartly sunny.10 mph55%30.09 "HgN/A
2:00 PM55 °FPartly sunny.8 mph55%30.09 "HgN/A
1:30 PM54 °FMostly cloudy.12 mph58%30.09 "HgN/A
1:00 PM55 °FMostly cloudy.9 mph59%30.09 "HgN/A
12:30 PM54 °FBroken clouds.10 mph67%30.09 "HgN/A
12:00 PM55 °FPassing clouds.8 mph63%30.09 "HgN/A
11:30 AM54 °FPassing clouds.8 mph72%30.09 "HgN/A
11:00 AM52 °FPassing clouds.10 mph72%30.09 "HgN/A
10:30 AM52 °FSunny.9 mph77%30.09 "Hg10 mi
10:00 AM48 °FClear.5 mph87%30.09 "Hg4 mi
9:30 AM46 °FFog.7 mph93%30.07 "Hg2 mi
9:00 AM45 °FFog.6 mph93%30.07 "Hg1 mi
8:30 AM45 °FFog.6 mph100%30.07 "Hg1 mi
8:00 AM45 °FFog.3 mph100%30.07 "Hg2 mi
7:30 AM46 °FFog.5 mph93%30.07 "Hg2 mi
7:00 AM46 °FFog.3 mph93%30.04 "Hg3 mi
6:30 AM48 °FPassing clouds.5 mph87%30.04 "Hg4 mi
6:00 AM48 °FPassing clouds.5 mph94%30.04 "Hg4 mi
5:30 AM50 °FPassing clouds.5 mph88%30.04 "Hg4 mi
4:30 AM48 °FOvercast.6 mph94%30.04 "Hg4 mi
4:00 AM48 °FPartly cloudy.7 mph94%30.04 "Hg4 mi
3:30 AM48 °FFog.6 mph94%30.04 "Hg3 mi
3:00 AM48 °FFog.5 mph94%30.04 "Hg3 mi
2:30 AM48 °FFog.5 mph94%30.04 "Hg3 mi
2:00 AM48 °FFog.7 mph94%30.04 "Hg3 mi
1:30 AM48 °FClear.5 mph94%30.04 "Hg10 mi
1:00 AM48 °FClear.3 mph94%30.04 "Hg10 mi
12:30 AM48 °FClear.6 mph94%30.04 "Hg10 mi
12:00 AM50 °FClear.7 mph88%30.04 "Hg10 mi
11:30 PM
Mon, Oct 12
48 °FClear.5 mph94%30.04 "Hg10 mi
11:00 PM50 °FClear.3 mph88%30.01 "Hg10 mi
10:30 PM52 °FClear.3 mph82%30.01 "Hg10 mi
10:00 PM52 °FClear.5 mph82%30.01 "Hg10 mi
9:30 PM52 °FClear.3 mph82%30.01 "Hg10 mi
9:00 PM54 °FClear.3 mph77%30.01 "Hg10 mi
8:30 PM54 °FPassing clouds.6 mph82%30.01 "HgN/A
8:00 PM55 °FSunny.5 mph77%30.01 "Hg10 mi
Weather by CustomWeather, © 2015

See weather overviewHow to use our weather pages